CAPE
nan nan nan nan nan nan nan nan nan nan nan 0 0 0 1 8 10 10 19 8 8 5 6 9 9 9 23 59 78 78 91 95 94 94 94 90 89 89 86 86 86 94 95 100 100 107 112 123 123 127 130 135 135 135 134 140 140 150 149 165 165 183 197 223 223 229 252 265 274 274 296 306 342 342 353 371 361 361 371 374 374 387 404 406 406 399
nan nan nan nan nan nan nan 0 nan nan nan nan 1 1 2 1 3 3 9 13 13 10 8 12 12 14 20 48 82 82 91 91 88 88 87 81 81 81 80 82 82 85 90 91 91 94 98 102 102 103 106 106 111 111 109 111 111 115 124 136 136 151 174 193 193 210 224 241 253 253 269 282 282 282 297 304 319 319 332 351 351 381 385 392 392 391
nan nan nan nan nan nan nan nan 1 1 2 0 2 2 4 5 5 5 6 10 10 16 16 19 19 23 24 45 75 75 78 76 73 73 73 74 70 70 71 73 73 77 80 80 80 83 83 82 82 89 89 93 95 95 101 106 106 112 123 133 133 153 170 186 186 203 219 239 254 254 268 282 288 288 301 298 321 321 343 368 368 379 377 380 380 372
nan nan nan 1 1 0 nan nan 1 1 5 5 7 7 7 7 8 8 8 9 9 20 26 27 27 22 19 23 49 49 64 62 64 64 64 63 61 61 58 61 61 61 65 66 66 69 72 74 74 77 80 84 90 90 95 102 102 111 125 136 136 157 172 193 193 213 224 245 252 252 271 283 296 296 315 337 349 349 385 397 397 378 361 372 372 382
3 0 0 2 2 1 1 2 2 2 7 10 10 10 11 10 14 14 23 29 29 28 27 22 22 15 11 14 33 33 50 56 55 55 53 54 53 53 51 53 53 56 59 68 68 73 76 81 81 81 85 89 93 93 99 109 109 112 127 142 142 157 179 204 204 218 229 249 262 262 271 289 291 291 299 331 363 363 389 391 391 381 380 390 390 414
4 3 3 2 2 1 3 7 8 8 11 11 11 11 13 15 26 26 34 27 27 27 20 16 16 10 5 4 24 24 40 46 44 44 45 46 49 49 51 54 54 57 66 72 72 79 81 83 83 87 89 95 97 97 103 113 113 118 133 147 147 159 176 201 201 222 229 240 247 247 258 268 271 271 270 298 311 311 334 347 347 360 378 388 388 411
8 5 6 3 3 3 5 7 10 10 7 11 12 12 20 30 32 32 31 32 32 23 14 12 12 6 3 5 20 20 31 31 34 34 38 40 47 47 51 54 54 59 67 74 74 80 83 84 84 89 91 95 101 101 108 114 114 125 138 147 147 165 175 179 179 194 194 198 202 202 216 222 234 234 236 242 259 259 277 305 305 309 314 344 344 369
12 10 12 10 10 10 9 12 15 15 18 24 25 25 26 31 26 26 31 33 33 20 5 0 0 0 nan nan nan nan nan nan nan nan 3 14 32 32 41 54 54 62 70 75 75 79 82 87 87 89 92 98 104 104 109 111 111 114 116 119 119 118 126 130 130 133 135 137 144 144 145 155 165 165 169 180 194 194 194 216 216 234 272 299 299 318
17 15 14 16 16 13 8 13 17 17 26 29 35 35 36 29 14 14 14 10 10 11 2 0 0 nan nan nan nan nan 3 7 1 1 4 4 6 6 30 49 49 57 68 71 71 74 77 80 80 83 88 91 93 93 94 92 92 88 91 95 95 97 106 117 117 123 130 136 144 144 149 150 158 158 166 174 179 179 182 197 197 218 247 289 289 313
15 13 13 16 16 12 8 10 25 25 32 40 47 47 36 19 9 9 9 5 5 3 1 2 2 1 0 0 0 0 3 10 33 33 50 37 59 59 43 34 34 33 55 60 60 65 65 66 66 68 72 78 76 76 80 76 76 75 80 84 84 92 100 106 106 117 128 134 141 141 147 153 156 156 162 163 164 164 173 180 180 196 229 273 273 303
8 14 9 14 14 14 14 27 35 35 40 27 22 22 13 9 8 8 6 2 2 0 0 1 1 2 2 1 1 1 3 2 5 5 24 37 44 44 41 35 35 36 41 45 45 44 45 50 50 56 60 62 65 65 63 63 63 67 72 80 80 87 97 104 104 111 125 132 138 138 148 152 156 156 162 168 164 164 168 175 175 187 218 254 254 286
21 19 13 16 16 21 35 47 45 45 25 12 7 7 7 12 14 14 7 3 3 2 2 2 2 3 5 4 6 6 5 3 3 3 5 10 16 16 13 8 8 11 18 20 20 26 35 42 42 46 47 47 58 58 58 54 54 64 69 79 79 85 91 98 98 109 120 133 143 143 152 160 168 168 172 179 173 173 180 183 183 198 230 249 249 261
26 18 10 26 26 34 34 27 12 12 4 5 5 5 6 6 10 10 12 5 5 3 2 1 1 2 6 6 8 8 9 4 4 4 3 4 5 5 2 0 0 0 0 0 0 1 18 32 32 37 42 42 48 48 54 54 54 62 69 78 78 87 92 102 102 113 127 141 148 148 162 174 185 185 190 190 192 192 195 206 206 218 233 249 249 258
28 32 35 41 41 26 15 8 5 5 4 6 8 8 9 8 9 9 6 3 3 3 4 3 3 4 6 6 13 13 11 6 3 3 3 3 7 7 5 1 1 0 0 0 0 1 12 16 16 12 30 30 38 38 44 53 53 67 76 83 83 91 101 114 114 128 137 153 165 165 177 178 189 189 199 194 200 200 205 205 205 206 218 223 223 239
35 37 27 22 22 9 6 8 6 6 4 7 6 6 8 9 6 6 4 6 6 7 8 12 12 9 10 7 9 9 8 7 4 4 3 3 8 8 6 2 2 1 1 2 2 1 12 10 10 3 4 12 19 19 33 48 48 73 83 90 90 102 109 122 122 130 142 152 160 160 165 175 180 180 185 185 187 187 193 188 188 188 194 205 205 217
27 17 17 18 18 10 8 7 5 5 5 8 10 10 9 6 4 4 3 6 6 7 9 10 10 13 11 7 5 5 6 6 5 5 4 3 5 5 4 3 3 2 1 1 1 2 4 2 2 2 3 16 36 36 50 63 63 80 91 97 97 106 115 123 123 131 137 148 158 158 159 163 163 163 166 168 173 173 175 180 180 181 179 192 192 199
21 12 9 6 6 7 7 4 8 8 7 6 7 7 7 9 8 8 12 18 18 16 19 15 15 9 9 4 4 4 6 4 6 6 5 4 4 4 5 3 3 3 1 1 1 1 1 0 0 2 4 25 46 46 56 71 71 81 95 102 102 111 112 118 118 128 135 144 149 149 154 152 156 156 155 159 163 163 170 169 169 175 174 187 187 187
14 7 4 5 5 5 6 5 5 5 9 6 5 5 5 15 13 13 7 8 8 18 19 15 15 6 4 3 1 1 4 2 3 3 3 3 3 3 4 2 2 2 1 1 1 1 1 2 2 5 10 42 52 52 58 73 73 88 94 98 98 105 109 112 112 122 128 136 145 145 144 148 147 147 147 147 152 152 161 165 165 169 167 179 179 180
8 7 7 9 9 7 6 5 4 4 5 6 5 5 13 17 14 14 12 10 10 12 18 6 6 6 4 2 1 1 4 4 1 1 4 3 4 4 3 2 2 2 1 2 2 3 2 6 6 20 33 45 51 51 58 69 69 81 86 89 89 95 99 106 106 116 118 127 132 132 132 133 137 137 137 143 146 146 155 160 160 166 165 168 168 178
8 12 11 7 7 9 9 8 8 8 10 14 13 13 25 19 16 16 16 16 16 9 7 3 3 4 3 3 2 2 3 1 4 4 4 5 5 5 2 2 2 2 1 1 1 1 3 6 6 14 28 39 47 47 53 58 58 68 73 82 82 82 89 93 93 98 107 112 118 118 119 121 124 124 129 131 133 133 138 142 142 148 153 161 161 164
13 16 9 9 9 12 9 9 10 10 18 29 24 24 18 16 16 16 18 14 14 9 4 7 7 4 6 5 3 3 3 3 5 5 2 3 3 3 1 2 2 2 1 2 2 4 5 5 5 3 14 28 37 37 43 47 47 57 64 70 70 76 83 86 86 94 97 102 106 106 107 108 109 109 113 114 114 114 115 122 122 125 134 143 143 148
15 13 9 12 12 10 14 9 28 28 33 28 24 24 26 13 12 12 16 8 8 8 10 8 8 7 7 5 3 3 5 4 4 4 3 5 5 5 1 3 3 3 3 3 3 4 3 2 2 1 9 25 28 28 35 42 42 47 56 60 60 68 74 79 79 82 85 90 94 94 99 97 98 98 100 104 101 101 105 109 109 113 122 130 130 135
13 10 10 10 10 12 19 24 30 30 40 27 32 32 26 6 7 7 6 9 9 13 13 10 10 11 12 10 6 6 7 7 2 2 0 3 1 1 1 2 2 2 3 3 3 2 1 nan nan nan 5 24 26 26 33 39 39 45 50 52 52 58 60 66 66 69 74 80 83 83 85 91 95 95 98 98 102 102 100 108 108 116 121 125 125 129
14 14 13 12 12 22 24 23 29 29 34 33 22 22 24 10 12 12 19 18 18 17 15 11 11 15 15 13 8 8 6 5 4 4 0 3 3 3 1 2 2 1 1 2 2 1 0 nan nan nan 1 18 22 22 29 33 33 38 43 45 45 48 49 52 52 59 66 72 79 79 85 91 97 97 99 98 99 99 108 112 112 120 124 121 121 125
14 20 22 23 23 37 32 33 58 58 56 34 15 15 17 29 29 29 24 22 22 17 13 12 12 9 12 14 3 3 2 3 3 3 1 3 2 2 0 2 2 2 1 1 1 0 nan nan nan nan nan 6 17 17 22 26 26 30 34 36 36 39 45 48 48 55 61 67 72 72 79 86 89 89 94 97 95 95 100 101 101 109 113 112 112 112
27 28 27 38 38 83 113 145 136 136 78 22 18 18 18 26 26 26 25 19 19 12 8 7 7 7 8 5 1 1 0 4 3 3 1 1 2 2 1 3 3 3 1 2 2 2 nan nan nan nan nan 1 10 10 16 20 20 24 29 34 34 35 40 49 49 55 57 60 65 65 71 73 76 76 81 84 87 87 89 94 94 92 97 96 96 98
57 66 91 115 115 130 127 110 83 83 77 57 31 31 23 19 19 19 17 13 13 8 6 6 6 6 5 2 1 1 2 3 2 2 1 0 1 1 3 4 4 4 3 1 1 0 2 0 0 0 nan nan 1 1 11 15 15 20 22 27 27 33 39 46 46 52 54 56 60 60 62 65 68 68 70 72 74 74 78 83 83 84 87 84 84 81
71 87 98 101 101 87 66 56 56 56 61 71 82 82 48 17 16 16 16 10 10 8 5 7 7 6 4 1 1 1 1 1 1 1 2 3 2 2 2 2 2 4 2 0 0 5 12 4 4 0 nan nan nan nan 3 10 10 14 16 20 20 28 34 39 39 42 46 50 53 53 55 59 61 61 64 65 67 67 71 78 78 82 78 66 66 45
73 78 70 55 55 42 40 43 48 48 53 57 62 62 44 15 14 14 14 11 11 8 6 7 7 6 6 4 1 1 0 0 0 0 2 4 5 5 4 2 2 7 5 2 2 3 3 2 2 0 nan nan nan nan 0 5 5 6 11 16 16 19 22 24 24 27 29 35 38 38 41 48 52 52 55 60 62 62 68 74 74 72 65 57 57 41
41 34 27 24 24 25 26 21 31 31 42 45 50 50 39 17 12 12 10 8 8 7 7 7 7 7 5 4 2 2 0 nan nan nan 1 2 4 4 3 4 4 6 4 3 3 0 0 0 0 nan nan nan nan nan nan nan nan nan 1 7 7 9 12 14 14 18 21 24 26 26 27 32 36 36 43 48 52 52 58 62 62 60 49 33 33 33
12 7 5 8 8 10 10 8 17 17 30 39 41 41 32 13 10 10 8 7 7 6 5 7 7 6 6 5 3 3 nan nan nan nan 0 3 6 6 5 4 4 6 7 1 1 0 1 nan nan nan 0 0 nan nan nan nan nan nan nan nan nan 2 5 6 6 10 14 15 16 16 20 24 25 25 31 37 44 44 52 56 56 53 27 18 18 18
4 3 4 5 5 5 5 5 4 4 6 6 8 8 13 12 8 8 5 6 6 7 8 6 6 8 6 2 2 2 1 0 1 1 4 0 9 9 9 5 5 5 7 2 2 nan 1 1 1 0 0 0 nan nan nan nan nan nan nan nan nan nan 0 2 2 2 3 7 9 9 11 12 16 16 20 26 33 33 37 40 40 45 20 5 5 12
7 6 7 8 8 6 5 5 5 5 6 5 6 6 5 6 10 10 6 6 6 5 8 5 5 4 5 4 4 4 1 0 2 2 10 2 5 5 7 5 5 9 7 6 6 2 1 1 1 2 0 0 nan nan nan nan nan nan nan nan nan nan nan 0 0 0 1 2 4 4 7 8 13 13 17 24 28 28 31 34 34 39 36 5 5 8
9 11 9 7 7 4 5 5 4 4 4 5 5 5 5 4 5 5 6 5 5 5 5 3 3 4 1 3 2 2 1 nan 2 2 7 2 2 2 3 3 3 2 4 4 4 7 3 1 1 1 1 0 0 0 nan nan nan 0 0 nan nan nan nan nan nan 0 0 1 0 0 1 1 10 10 12 16 21 21 26 32 32 36 45 22 22 7
9 10 7 5 5 4 5 4 3 3 3 3 3 3 4 3 2 2 4 4 4 4 3 4 4 2 3 0 1 1 0 nan 0 0 8 1 1 1 2 2 2 1 3 3 3 0 3 4 4 5 1 0 nan nan nan nan nan nan nan nan nan nan nan nan nan 0 0 0 nan nan nan nan 0 0 3 9 17 17 28 35 35 39 44 51 51 31
7 7 4 4 4 5 3 3 3 3 2 1 1 1 1 1 2 2 1 2 2 4 8 5 5 4 1 0 0 0 1 nan 3 3 7 2 0 0 0 2 2 1 0 3 3 4 2 5 5 6 5 1 nan nan nan nan nan nan nan 0 0 0 nan nan nan nan nan nan nan nan nan nan 0 0 1 10 20 20 28 34 34 38 40 48 48 52
6 6 5 3 3 2 4 1 1 1 1 1 1 1 1 0 1 1 1 3 3 6 6 11 11 9 9 1 0 0 0 0 2 2 4 1 0 0 0 1 1 3 0 2 2 4 2 5 5 4 2 1 nan nan nan nan nan nan nan nan nan nan nan nan nan 0 nan 0 nan nan nan 0 1 1 3 12 14 14 21 28 28 30 34 37 37 46
7 6 6 5 5 3 2 1 1 1 1 0 1 1 2 1 2 2 1 4 4 9 3 3 3 4 12 14 6 6 2 2 2 2 3 5 0 0 0 2 2 6 3 1 1 0 0 2 2 3 2 0 1 1 1 0 0 0 0 0 0 0 nan nan nan nan 0 1 1 1 1 0 0 0 1 3 1 1 1 3 3 13 22 26 26 32
5 5 6 6 6 2 2 2 1 1 1 1 2 2 2 2 3 3 1 2 2 3 3 2 2 1 2 5 10 10 8 4 1 1 2 3 0 0 0 0 0 3 3 1 1 nan 0 1 1 1 2 1 1 1 0 0 0 0 0 0 0 0 nan nan nan 1 1 0 1 1 nan nan 0 0 2 1 2 2 2 2 2 5 6 5 5 18
6 6 6 6 6 3 1 1 1 1 1 3 5 5 3 2 1 1 1 1 1 2 2 3 3 2 2 4 5 5 4 1 3 3 0 nan 0 0 0 0 0 2 2 1 1 0 0 0 0 1 3 1 1 1 1 0 0 1 2 nan nan nan nan nan nan 0 nan nan nan nan nan nan nan nan 1 2 4 4 3 1 1 3 7 1 1 1
8 7 5 4 4 3 1 1 1 1 1 2 2 2 2 2 2 2 0 1 1 2 2 3 3 2 2 2 0 0 0 nan 1 1 nan nan nan nan 1 0 0 nan 0 2 2 1 nan nan nan 1 1 0 3 3 4 1 1 4 6 0 0 nan nan 1 1 0 nan nan 0 0 1 1 1 1 0 2 1 1 2 1 1 3 5 2 2 0
9 7 4 1 1 1 0 1 3 3 3 2 3 3 3 1 1 1 1 2 2 2 2 2 2 3 2 1 0 0 0 2 1 1 0 nan 1 1 1 2 2 0 0 0 0 1 2 0 0 3 4 0 0 0 1 1 1 2 3 1 1 1 1 1 1 nan nan nan nan nan 2 0 nan nan nan 0 0 0 3 3 3 10 12 5 5 1
7 5 2 1 1 0 1 4 4 4 2 1 2 2 1 0 1 1 3 3 3 4 4 3 3 4 3 2 0 0 1 2 2 2 1 0 0 0 1 1 1 1 0 0 0 1 6 7 7 3 3 4 nan nan 1 2 2 1 1 1 1 1 0 0 0 nan nan nan 0 0 0 nan 0 0 nan 1 2 2 4 11 11 26 22 5 5 5
7 4 4 3 3 2 3 4 2 2 2 1 1 1 1 1 2 2 3 3 3 5 5 4 4 4 4 2 0 0 0 0 0 0 0 2 1 1 1 2 2 1 0 0 0 2 6 8 8 5 5 3 1 1 2 1 1 1 0 1 1 0 nan 0 0 0 nan nan nan nan nan nan 0 0 0 0 1 1 3 3 3 3 20 13 13 7
5 4 4 4 4 4 5 4 2 2 2 2 2 2 1 2 3 3 3 5 5 5 5 3 3 4 2 2 0 0 0 0 nan nan nan 3 8 8 5 4 4 3 4 0 0 nan nan 4 4 3 2 1 1 1 1 0 0 1 0 1 1 1 0 1 1 1 nan nan nan nan nan 1 0 0 nan nan 1 1 4 7 7 9 15 16 16 12
6 6 5 4 4 5 6 4 2 2 3 2 3 3 1 1 1 1 4 4 4 5 4 3 3 1 1 1 1 1 0 0 0 0 nan 0 1 1 5 7 7 9 5 5 5 1 0 3 3 2 2 2 1 1 1 1 1 0 0 0 0 0 1 1 1 1 0 0 nan nan 0 1 nan nan nan 0 1 1 6 11 11 8 18 20 20 14
5 6 6 4 4 3 3 3 2 2 3 2 1 1 1 1 1 1 3 4 4 2 3 2 2 0 0 0 0 0 1 1 1 1 0 0 0 0 3 5 5 9 5 4 4 7 3 3 3 3 0 1 1 1 1 1 1 1 0 0 0 0 0 0 0 0 0 0 0 0 1 1 nan nan 0 nan 1 1 6 10 10 10 8 6 6 8
8 6 5 5 5 2 2 1 1 1 3 3 1 1 1 1 1 1 2 2 2 3 4 1 1 0 1 1 0 0 0 1 1 1 1 1 2 2 2 3 3 6 9 8 8 9 6 5 5 6 5 1 0 0 0 0 0 0 0 1 1 1 1 1 1 0 0 0 1 1 4 0 nan nan 0 1 2 2 2 2 2 2 1 2 2 4
6 5 5 5 5 3 1 1 2 2 2 3 2 2 1 3 10 10 2 1 1 1 1 1 1 1 1 1 1 1 1 1 1 1 0 0 0 0 2 3 3 3 3 6 6 7 5 9 9 8 5 4 1 1 0 nan nan nan 0 1 1 1 1 0 0 0 0 0 1 1 1 0 0 0 nan 0 2 2 0 0 0 nan nan 1 1 3
4 4 4 4 4 4 2 1 1 1 3 2 3 3 1 1 1 1 0 1 1 1 0 1 1 1 2 1 1 1 1 1 1 1 0 0 1 1 0 3 3 6 4 3 3 4 3 5 5 7 8 4 0 0 0 1 1 1 2 2 2 0 nan 0 0 1 1 0 1 1 1 2 1 1 nan nan 1 1 2 0 0 0 nan nan nan 3
4 3 2 3 3 4 2 2 2 2 2 2 2 2 2 1 1 1 1 1 1 1 0 0 0 1 1 1 2 2 1 0 1 1 1 1 0 0 1 2 2 4 3 2 2 2 1 1 1 0 0 4 5 5 5 6 6 5 4 2 2 0 nan 0 0 2 3 2 2 2 3 4 3 3 0 0 1 1 2 0 0 0 nan nan nan 2
CIN
nan nan nan nan nan nan nan nan nan nan nan -0 -0 -0 -0 -0 -0 -0 -0 -0 -0 -0 -0 -0 -0 -0 -0 -0 -0 -0 -0 -0 -0 -0 -0 -0 -0 -0 -0 -0 -0 -0 -0 -0 -0 -0 -0 -0 -0 -0 -0 -0 -0 -0 -0 -0 -0 -0 -0 -0 -0 -0 -0 -0 -0 -0 -0 -0 -0 -0 -0 -0 -0 -0 -0 -0 -0 -0 -0 -0 -0 -0 -0 -0 -0 -0
nan nan nan nan nan nan nan -0 nan nan nan nan -0 -0 -0 -0 -0 -0 -0 -0 -0 -0 -0 -0 -0 -0 -0 -0 -0 -0 -0 -0 -0 -0 -0 -0 -0 -0 -0 -0 -0 -0 -0 -0 -0 -0 -0 -0 -0 -0 -0 -0 -0 -0 -0 -0 -0 -0 -0 -0 -0 -0 -0 -0 -0 -0 -0 -0 -0 -0 -0 -0 -0 -0 -0 -0 -0 -0 -0 -0 -0 -0 -0 -0 -0 -0
nan nan nan nan nan nan nan nan -0 -0 -0 -0 -0 -0 -0 -0 -0 -0 -0 -0 -0 -0 -0 -0 -0 -0 -0 -0 -0 -0 -0 -0 -0 -0 -0 -0 -0 -0 -0 -0 -0 -0 -0 -0 -0 -0 -0 -0 -0 -0 -0 -0 -0 -0 -0 -0 -0 -0 -0 -0 -0 -0 -0 -0 -0 -0 -0 -0 -0 -0 -0 -0 -0 -0 -0 -0 -0 -0 -0 -0 -0 -0 -0 -0 -0 -0
nan nan nan -0 -0 -0 nan nan -0 -0 -0 -0 -0 -0 -0 -0 -0 -0 -0 -0 -0 -0 -0 -0 -0 -0 -0 -0 -0 -0 -0 -0 -0 -0 -0 -0 -0 -0 -0 -0 -0 -0 -0 -0 -0 -0 -0 -0 -0 -0 -0 -0 -0 -0 -0 -0 -0 -0 -0 -0 -0 -0 -0 -0 -0 -0 -0 -0 -0 -0 -0 -0 -0 -0 -0 -0 -0 -0 -0 -0 -0 -0 -0 -0 -0 -0
-0 -0 -0 -0 -0 -0 -0 -0 -0 -0 -0 -0 -0 -0 -0 -0 -0 -0 -0 -0 -0 -0 -0 -0 -0 -0 -0 -0 -0 -0 -0 -0 -0 -0 -0 -0 -0 -0 -0 -0 -0 -0 -0 -0 -0 -0 -0 -0 -0 -0 -0 -0 -0 -0 -0 -0 -0 -0 -0 -0 -0 -0 -0 -0 -0 -0 -0 -0 -0 -0 -0 -0 -0 -0 -0 -0 -0 -0 -0 -0 -0 -0 -0 -0 -0 -0
-0 -0 -0 -0 -0 -0 -0 -0 -0 -0 -0 -0 -0 -0 -0 -0 -0 -0 -0 -0 -0 -0 -0 -0 -0 -0 -0 -0 -0 -0 -0 -0 -0 -0 -0 -0 -0 -0 -0 -0 -0 -0 -0 -0 -0 -0 -0 -0 -0 -0 -0 -0 -0 -0 -0 -0 -0 -0 -0 -0 -0 -0 -0 -0 -0 -0 -0 -0 -0 -0 -0 -0 -0 -0 -0 -0 -0 -0 -0 -0 -0 -0 -0 -0 -0 -0
-0 -0 -0 -0 -0 -0 -0 -0 -0 -0 -0 -0 -0 -0 -0 -0 -0 -0 -0 -0 -0 -0 -0 -0 -0 -0 -0 -0 -0 -0 -0 -0 -0 -0 -0 -0 -0 -0 -0 -0 -0 -0 -0 -0 -0 -0 -0 -0 -0 -0 -0 -0 -0 -0 -0 -0 -0 -0 -0 -0 -0 -0 -0 -0 -0 -0 -0 -0 -0 -0 -0 -0 -0 -0 -0 -0 -0 -0 -0 -0 -0 -0 -0 -0 -0 -0
-0 -0 -0 -0 -0 -0 -0 -0 -0 -0 -0 -0 -0 -0 -0 -0 -0 -0 -0 -0 -0 -0 -0 -0 -0 -0 nan nan nan nan nan nan nan nan -0 -0 -0 -0 -0 -0 -0 -0 -0 -0 -0 -0 -0 -0 -0 -0 -0 -0 -0 -0 -0 -0 -0 -0 -0 -0 -0 -0 -0 -0 -0 -0 -0 -0 -0 -0 -0 -0 -0 -0 -0 -0 -0 -0 -0 -0 -0 -0 -0 -0 -0 -0
-0 -0 -0 -0 -0 -0 -0 -0 -0 -0 -0 -0 -0 -0 -0 -0 -0 -0 -0 -0 -0 -0 -0 -0 -0 nan nan nan nan nan -0 -0 -0 -0 -0 -0 -0 -0 -0 -0 -0 -0 -0 -0 -0 -0 -0 -0 -0 -0 -0 -0 -0 -0 -0 -0 -0 -0 -0 -0 -0 -0 -0 -0 -0 -0 -0 -0 -0 -0 -0 -0 -0 -0 -0 -0 -0 -0 -0 -0 -0 -0 -0 -0 -0 -0
-0 -0 -0 -0 -0 -0 -0 -0 -0 -0 -0 -0 -0 -0 -0 -0 -0 -0 -0 -0 -0 -0 -0 -0 -0 -0 -0 -0 -0 -0 -0 -0 -0 -0 -0 -0 -0 -0 -0 -0 -0 -0 -0 -0 -0 -0 -0 -0 -0 -0 -0 -0 -0 -0 -0 -0 -0 -0 -0 -0 -0 -0 -0 -0 -0 -0 -0 -0 -0 -0 -0 -0 -0 -0 -0 -0 -0 -0 -0 -0 -0 -0 -0 -0 -0 -0
-0 -0 -0 -0 -0 -0 -2 -0 -0 -0 -0 -0 -0 -0 -0 -0 -0 -0 -0 -0 -0 -0 -0 -0 -0 -0 -0 -0 -0 -0 -0 -0 -0 -0 -0 -0 -0 -0 -0 -0 -0 -0 -0 -0 -0 -0 -0 -0 -0 -0 -0 -0 -0 -0 -0 -0 -0 -0 -0 -0 -0 -0 -0 -0 -0 -0 -0 -0 -0 -0 -0 -0 -0 -0 -0 -0 -0 -0 -0 -0 -0 -0 -0 -0 -0 -0
-0 -0 -0 -0 -0 -0 -0 -0 -0 -0 -0 -0 -0 -0 -0 -0 -0 -0 -0 -0 -0 -0 -0 -0 -0 -0 -0 -0 -0 -0 -0 -0 -0 -0 -0 -0 -0 -0 -0 -0 -0 -0 -0 -0 -0 -0 -0 -0 -0 -0 -0 -0 -0 -0 -0 -0 -0 -0 -0 -0 -0 -0 -0 -0 -0 -0 -0 -0 -0 -0 -0 -0 -0 -0 -0 -0 -0 -0 -0 -0 -0 -0 -0 -0 -0 -0
-0 -0 -1 -0 -0 -0 -0 -0 -0 -0 -0 -0 -0 -0 -0 -0 -0 -0 -0 -0 -0 -0 -0 -0 -0 -0 -0 -0 -0 -0 -0 -0 -0 -0 -0 -0 -0 -0 -0 -0 -0 -0 -0 -0 -0 -0 -0 -0 -0 -0 -0 -0 -0 -0 -0 -0 -0 -0 -0 -0 -0 -0 -0 -0 -0 -0 -0 -0 -0 -0 -0 -0 -0 -0 -0 -0 -0 -0 -0 -0 -0 -0 -0 -0 -0 -0
-0 -0 -0 -0 -0 -0 -0 -0 -0 -0 -0 -0 -0 -0 -0 -0 -0 -0 -0 -0 -0 -0 -0 -0 -0 -0 -0 -0 -0 -0 -0 -0 -0 -0 -0 -0 -0 -0 -0 -0 -0 -0 -0 -0 -0 -0 -0 -0 -0 -0 -0 -0 -0 -0 -0 -0 -0 -0 -0 -0 -0 -0 -0 -0 -0 -0 -0 -0 -0 -0 -0 -0 -0 -0 -0 -0 -0 -0 -0 -0 -0 -0 -0 -0 -0 -0
-0 -0 -0 -0 -0 -0 -0 -0 -0 -0 -0 -0 -0 -0 -0 -0 -0 -0 -0 -0 -0 -0 -0 -0 -0 -0 -0 -0 -0 -0 -0 -0 -0 -0 -0 -0 -0 -0 -0 -0 -0 -0 -0 -0 -0 -0 -0 -0 -0 -0 -0 -0 -0 -0 -0 -0 -0 -0 -0 -0 -0 -0 -0 -0 -0 -0 -0 -0 -0 -0 -0 -0 -0 -0 -0 -0 -0 -0 -0 -0 -0 -0 -0 -0 -0 -0
-0 -0 -0 -0 -0 -0 -0 -0 -0 -0 -0 -0 -0 -0 -0 -0 -0 -0 -0 -0 -0 -0 -0 -0 -0 -0 -0 -0 -0 -0 -0 -0 -0 -0 -0 -0 -0 -0 -0 -0 -0 -0 -0 -0 -0 -0 -0 -0 -0 -0 -0 -0 -0 -0 -0 -0 -0 -0 -0 -0 -0 -0 -0 -0 -0 -0 -0 -0 -0 -0 -0 -0 -0 -0 -0 -0 -0 -0 -0 -0 -0 -0 -0 -0 -0 -0
-0 -0 -0 -1 -1 -0 -0 -0 -0 -0 -0 -0 -0 -0 -0 -0 -0 -0 -0 -0 -0 -0 -0 -0 -0 -0 -0 -0 -0 -0 -0 -0 -0 -0 -0 -0 -0 -0 -0 -0 -0 -0 -0 -0 -0 -0 -0 -0 -0 -0 -0 -0 -0 -0 -0 -0 -0 -0 -0 -0 -0 -0 -0 -0 -0 -0 -0 -0 -0 -0 -0 -0 -0 -0 -0 -0 -0 -0 -0 -0 -0 -0 -0 -0 -0 -0
-0 -0 -0 -0 -0 -0 -0 -0 -0 -0 -0 -0 -0 -0 -0 -0 -0 -0 -1 -0 -0 -0 -0 -0 -0 -0 -0 -0 -0 -0 -0 -0 -0 -0 -0 -0 -0 -0 -0 -0 -0 -0 -0 -0 -0 -0 -0 -0 -0 -0 -0 -0 -0 -0 -0 -0 -0 -0 -0 -0 -0 -0 -0 -0 -0 -0 -0 -0 -0 -0 -0 -0 -0 -0 -0 -0 -0 -0 -0 -0 -0 -0 -0 -0 -0 -0
-0 -0 -0 -0 -0 -0 -0 -0 -0 -0 -0 -0 -0 -0 -0 -0 -0 -0 -0 -1 -1 -0 -0 -0 -0 -0 -0 -0 -0 -0 -0 -0 -3 -3 -0 -0 -0 -0 -0 -0 -0 -0 -0 -0 -0 -0 -0 -0 -0 -0 -0 -0 -0 -0 -0 -0 -0 -0 -0 -0 -0 -0 -0 -0 -0 -0 -0 -0 -0 -0 -0 -0 -0 -0 -0 -0 -0 -0 -0 -0 -0 -0 -0 -0 -0 -0
-0 -0 -0 -0 -0 -0 -0 -0 -0 -0 -0 -0 -0 -0 -0 -0 -0 -0 -0 -0 -0 -0 -0 -0 -0 -0 -0 -0 -0 -0 -0 -0 -0 -0 -0 -0 -0 -0 -0 -0 -0 -0 -0 -0 -0 -0 -0 -0 -0 -0 -0 -0 -0 -0 -0 -0 -0 -0 -0 -0 -0 -0 -0 -0 -0 -0 -0 -0 -0 -0 -0 -0 -0 -0 -0 -0 -0 -0 -0 -0 -0 -0 -0 -0 -0 -0
-0 -0 -0 -0 -0 -0 -0 -0 -0 -0 -0 -0 -0 -0 -0 -0 -0 -0 -0 -0 -0 -0 -0 -0 -0 -0 -0 -0 -0 -0 -0 -0 -0 -0 -0 -0 -0 -0 -0 -0 -0 -0 -0 -0 -0 -0 -0 -0 -0 -0 -0 -0 -0 -0 -0 -0 -0 -0 -0 -0 -0 -0 -0 -0 -0 -0 -0 -0 -0 -0 -0 -0 -0 -0 -0 -0 -0 -0 -0 -0 -0 -0 -0 -0 -0 -0
-0 -0 -0 -0 -0 -0 -0 -0 -0 -0 -0 -4 -0 -0 -0 -0 -0 -0 -0 -0 -0 -0 -0 -0 -0 -0 -0 -0 -0 -0 -0 -0 -0 -0 -0 -0 -0 -0 -0 -0 -0 -0 -0 -0 -0 -0 -0 -0 -0 -0 -0 -0 -0 -0 -0 -0 -0 -0 -0 -0 -0 -0 -0 -0 -0 -0 -0 -0 -0 -0 -0 -0 -0 -0 -0 -0 -0 -0 -0 -0 -0 -0 -0 -0 -0 -0
-0 -0 -0 -0 -0 -0 -0 -0 -0 -0 -0 -2 -0 -0 -0 -0 -0 -0 -0 -0 -0 -0 -0 -0 -0 -0 -0 -0 -0 -0 -0 -0 -0 -0 -0 -0 -0 -0 -0 -0 -0 -0 -0 -0 -0 -0 -0 nan nan nan -0 -0 -0 -0 -0 -0 -0 -0 -0 -0 -0 -0 -0 -0 -0 -0 -0 -0 -0 -0 -0 -0 -0 -0 -0 -0 -0 -0 -0 -0 -0 -0 -0 -0 -0 -0
-0 -0 -0 -0 -0 -0 -1 -0 -1 -1 -0 -0 -0 -0 -0 -0 -0 -0 -0 -0 -0 -0 -0 -0 -0 -0 -0 -0 -0 -0 -0 -0 -0 -0 -0 -0 -0 -0 -0 -0 -0 -0 -0 -0 -0 -0 -0 nan nan nan -0 -0 -0 -0 -0 -0 -0 -0 -0 -0 -0 -0 -0 -0 -0 -0 -0 -0 -0 -0 -0 -0 -0 -0 -0 -0 -0 -0 -0 -0 -0 -0 -0 -0 -0 -0
-0 -0 -0 -0 -0 -9 -4 -0 -0 -0 -0 -0 -0 -0 -0 -0 -0 -0 -0 -0 -0 -0 -0 -0 -0 -0 -0 -0 -0 -0 -0 -0 -0 -0 -0 -0 -0 -0 -0 -0 -0 -0 -0 -0 -0 -0 nan nan nan nan nan -0 -0 -0 -0 -0 -0 -0 -0 -0 -0 -0 -0 -0 -0 -0 -0 -0 -0 -0 -0 -0 -0 -0 -0 -0 -0 -0 -0 -0 -0 -0 -0 -0 -0 -0
-0 -0 -0 -0 -0 -0 -0 -0 -0 -0 -0 -0 -0 -0 -0 -0 -0 -0 -0 -0 -0 -0 -0 -0 -0 -0 -0 -0 -0 -0 -0 -0 -0 -0 -0 -0 -0 -0 -0 -0 -0 -0 -0 -0 -0 -0 nan nan nan nan nan -0 -0 -0 -0 -0 -0 -0 -0 -0 -0 -0 -0 -0 -0 -0 -0 -0 -0 -0 -0 -0 -0 -0 -0 -0 -0 -0 -0 -0 -0 -0 -0 -0 -0 -0
-0 -0 -0 -0 -0 -0 -0 -0 -0 -0 -0 -0 -0 -0 -0 -0 -0 -0 -0 -0 -0 -0 -0 -0 -0 -0 -0 -0 -0 -0 -0 -0 -0 -0 -0 -0 -0 -0 -0 -0 -0 -0 -0 -0 -0 -0 -0 -0 -0 -0 nan nan -0 -0 -0 -0 -0 -0 -0 -0 -0 -0 -0 -0 -0 -0 -0 -0 -0 -0 -0 -0 -0 -0 -0 -0 -0 -0 -0 -0 -0 -0 -0 -0 -0 -0
-0 -0 -0 -0 -0 -0 -0 -0 -0 -0 -0 -0 -0 -0 -0 -0 -0 -0 -0 -0 -0 -0 -0 -0 -0 -0 -0 -0 -0 -0 -0 -0 -0 -0 -0 -0 -0 -0 -0 -0 -0 -0 -0 -0 -0 -0 -0 -0 -0 -0 nan nan nan nan -0 -0 -0 -0 -0 -0 -0 -0 -0 -0 -0 -0 -0 -0 -0 -0 -0 -0 -0 -0 -0 -0 -0 -0 -0 -0 -0 -0 -0 -0 -0 -0
-0 -0 -0 -0 -0 -0 -0 -0 -0 -0 -0 -0 -0 -0 -0 -0 -0 -0 -0 -0 -0 -0 -0 -0 -0 -0 -0 -0 -0 -0 -0 -0 -0 -0 -0 -0 -0 -0 -0 -0 -0 -0 -0 -0 -0 -0 -0 -0 -0 -0 nan nan nan nan -0 -0 -0 -0 -0 -0 -0 -0 -0 -0 -0 -0 -0 -0 -0 -0 -0 -0 -0 -0 -0 -0 -0 -0 -0 -0 -0 -0 -0 -0 -0 -0
-0 -0 -0 -0 -0 -0 -0 -0 -0 -0 -0 -0 -0 -0 -0 -0 -0 -0 -0 -0 -0 -0 -0 -0 -0 -0 -0 -0 -0 -0 -0 nan nan nan -0 -0 -0 -0 -0 -0 -0 -0 -0 -0 -0 -0 -0 -0 -0 nan nan nan nan nan nan nan nan nan -0 -0 -0 -0 -0 -0 -0 -0 -0 -0 -0 -0 -0 -0 -0 -0 -0 -0 -0 -0 -0 -0 -0 -0 -0 -1 -1 -1
-0 -0 -0 -0 -0 -0 -0 -0 -0 -0 -0 -0 -0 -0 -0 -0 -0 -0 -0 -0 -0 -0 -0 -0 -0 -0 -0 -0 -0 -0 nan nan nan nan -0 -0 -0 -0 -0 -0 -0 -0 -0 -0 -0 -0 -0 nan nan nan -0 -0 nan nan nan nan nan nan nan nan nan -0 -0 -0 -0 -0 -0 -0 -0 -0 -0 -0 -0 -0 -0 -0 -0 -0 -0 -0 -0 -0 -2 -2 -2 -2
-0 -0 -0 -0 -0 -0 -0 -0 -0 -0 -0 -0 -0 -0 -0 -0 -0 -0 -0 -0 -0 -0 -0 -0 -0 -0 -0 -0 -0 -0 -0 -0 -0 -0 -0 -0 -0 -0 -0 -0 -0 -0 -0 -0 -0 nan -0 -0 -0 -0 -0 -0 nan nan nan nan nan nan nan nan nan nan -0 -0 -0 -0 -0 -0 -0 -0 -0 -0 -0 -0 -0 -0 -0 -0 -0 -0 -0 -0 -0 -1 -1 -0
-0 -0 -0 -0 -0 -0 -0 -0 -0 -0 -0 -0 -0 -0 -0 -0 -0 -0 -0 -0 -0 -0 -0 -0 -0 -0 -0 -0 -0 -0 -0 -0 -0 -0 -0 -0 -0 -0 -0 -0 -0 -0 -0 -0 -0 -0 -0 -0 -0 -0 -0 -0 nan nan nan nan nan nan nan nan nan nan nan -0 -0 -0 -0 -0 -0 -0 -0 -0 -0 -0 -0 -0 -0 -0 -0 -0 -0 -0 -0 -1 -1 -0
-0 -0 -0 -0 -0 -0 -0 -0 -0 -0 -0 -0 -0 -0 -0 -0 -0 -0 -0 -0 -0 -0 -0 -0 -0 -0 -0 -0 -0 -0 -0 nan -0 -0 -0 -0 -0 -0 -0 -0 -0 -0 -0 -0 -0 -0 -0 -0 -0 -0 -0 -0 -0 -0 nan nan nan -0 -0 nan nan nan nan nan nan -0 -0 -0 -0 -0 -0 -0 -0 -0 -0 -0 -0 -0 -0 -0 -0 -0 -0 -0 -0 -0
-0 -0 -0 -0 -0 -0 -0 -0 -0 -0 -0 -0 -0 -0 -0 -0 -0 -0 -0 -0 -0 -0 -0 -0 -0 -0 -0 -0 -0 -0 -0 nan -0 -0 -0 -0 -0 -0 -0 -0 -0 -0 -0 -0 -0 -0 -0 -0 -0 -0 -0 -0 nan nan nan nan nan nan nan nan nan nan nan nan nan -0 -0 -0 nan nan nan nan -0 -0 -0 -0 -0 -0 -0 -0 -0 -0 -0 -0 -0 -0
-0 -0 -0 -0 -0 -0 -0 -0 -0 -0 -0 -0 -0 -0 -0 -0 -0 -0 -0 -0 -0 -0 -0 -0 -0 -0 -0 -1 -0 -0 -0 nan -0 -0 -0 -0 -0 -0 -0 -0 -0 -0 -0 -0 -0 -0 -0 -0 -0 -0 -0 -0 nan nan nan nan nan nan nan -0 -0 -0 nan nan nan nan nan nan nan nan nan nan -0 -0 -0 -0 -0 -0 -0 -0 -0 -0 -0 -0 -0 -0
-0 -0 -0 -0 -0 -0 -0 -0 -0 -0 -0 -0 -0 -0 -0 -0 -0 -0 -0 -2 -2 -1 -0 -0 -0 -0 -0 -2 -5 -5 -0 -0 -0 -0 -0 -1 -0 -0 -0 -0 -0 -0 -0 -0 -0 -0 -0 -0 -0 -0 -0 -0 nan nan nan nan nan nan nan nan nan nan nan nan nan -0 nan -0 nan nan nan -0 -0 -0 -0 -0 -0 -0 -0 -0 -0 -0 -0 -0 -0 -0
-0 -0 -0 -0 -0 -0 -0 -0 -0 -0 -0 -0 -0 -0 -0 -0 -0 -0 -0 -0 -0 -0 -0 -0 -0 -0 -0 -0 -9 -9 -7 -1 -0 -0 -1 -2 -0 -0 -0 -0 -0 -0 -0 -0 -0 -0 -0 -0 -0 -0 -0 -0 -0 -0 -0 -0 -0 -0 -0 -0 -0 -0 nan nan nan nan -0 -0 -0 -0 -0 -0 -0 -0 -0 -0 -1 -1 -0 -0 -0 -0 -0 -0 -0 -0
-0 -0 -0 -0 -0 -0 -0 -0 -0 -0 -0 -0 -0 -0 -0 -0 -0 -0 -0 -0 -0 -0 -0 -0 -0 -0 -10 -12 -3 -3 -3 -8 -10 -10 -6 -3 -1 -1 -0 -0 -0 -0 -0 -0 -0 nan -0 -0 -0 -0 -0 -0 -0 -0 -0 -0 -0 -0 -0 -0 -0 -0 nan nan nan -0 -0 -0 -0 -0 nan nan -0 -0 -0 -0 -1 -1 -1 -0 -0 -0 -0 -0 -0 -0
-0 -0 -0 -0 -0 -0 -0 -0 -0 -0 -0 -0 -0 -0 -0 -0 -0 -0 -0 -0 -0 -0 -0 -0 -0 -0 -0 -0 -0 -0 -3 -17 -7 -7 -8 nan -2 -2 -0 -0 -0 -0 -0 -0 -0 -0 -0 -0 -0 -0 -0 -0 -0 -0 -0 -0 -0 -0 -0 nan nan nan nan nan nan -0 nan nan nan nan nan nan nan nan -0 -1 -0 -0 -1 -2 -2 -1 -0 -2 -2 -0
-0 -0 -0 -0 -0 -0 -0 -0 -0 -0 -0 -0 -0 -0 -0 -0 -0 -0 -0 -0 -0 -0 -0 -0 -0 -0 -0 -0 -0 -0 -4 nan -5 -5 nan nan nan nan -1 -0 -0 nan -0 -0 -0 -0 nan nan nan -0 -0 -0 -0 -0 -0 -0 -0 -0 -0 -0 -0 nan nan -0 -0 -0 nan nan -1 -1 -0 -0 -0 -0 -0 -1 -3 -3 -3 -4 -4 -1 -0 -2 -2 -1
-0 -0 -0 -0 -0 -0 -0 -0 -0 -0 -0 -0 -0 -0 -0 -0 -0 -0 -0 -0 -0 -0 -0 -0 -0 -0 -0 -0 -0 -0 -4 -3 -12 -12 -16 nan -6 -6 -2 -0 -0 -0 -0 -0 -0 -0 -0 -0 -0 -0 -0 -0 -0 -0 -0 -0 -0 -0 -0 -0 -0 -0 -0 -0 -0 nan nan nan nan nan -0 -0 nan nan nan -4 -6 -6 -4 -3 -3 -0 -0 -2 -2 -2
-0 -0 -0 -0 -0 -0 -0 -0 -0 -0 -0 -0 -0 -0 -0 -0 -0 -0 -0 -0 -0 -0 -0 -0 -0 -0 -0 -0 -0 -0 -0 -10 -6 -6 -9 -16 -9 -9 -1 -0 -0 -0 -0 -0 -0 -0 -0 -0 -0 -0 -0 -0 nan nan -0 -0 -0 -0 -0 -0 -0 -0 -0 -0 -0 nan nan nan -0 -0 -0 nan -2 -2 nan -5 -6 -6 -4 -2 -2 -0 -0 -1 -1 -1
-0 -0 -0 -0 -0 -0 -0 -0 -0 -0 -0 -0 -0 -0 -0 -0 -0 -0 -0 -0 -0 -0 -0 -0 -0 -0 -0 -0 -0 -0 -0 -0 -9 -9 -8 -5 -11 -11 -5 -0 -0 -0 -0 -0 -0 -0 -0 -0 -0 -0 -0 -0 -0 -0 -0 -0 -0 -0 -0 -0 -0 -0 nan -0 -0 -0 nan nan nan nan nan nan -6 -6 -6 -5 -5 -5 -5 -5 -5 -5 -1 -2 -2 -1
-0 -0 -0 -0 -0 -0 -0 -0 -0 -0 -0 -0 -0 -0 -0 -0 -0 -0 -0 -0 -0 -0 -0 -0 -0 -0 -0 -0 -0 -0 -0 -0 nan nan nan -5 -3 -3 -5 -1 -1 -0 -0 -0 -0 nan nan -0 -0 -0 -0 -0 -0 -0 -0 -0 -0 -0 -0 -0 -0 -0 -0 -0 -0 -0 nan nan nan nan nan -4 -5 -5 nan nan -6 -6 -7 -5 -5 -3 -2 -3 -3 -2
-0 -0 -0 -0 -0 -0 -0 -0 -0 -0 -0 -0 -0 -0 -0 -0 -0 -0 -0 -0 -0 -0 -0 -0 -0 -0 -0 -0 -0 -0 -0 -0 -0 -0 nan -6 -6 -6 -0 -0 -0 -0 -0 -0 -0 -0 -0 -0 -0 -0 -0 -0 -0 -0 -0 -0 -0 -0 -0 -0 -0 -0 -0 -0 -0 -0 -0 -0 nan nan -0 -4 nan nan nan -4 -6 -6 -8 -4 -4 -2 -1 -2 -2 -1
-0 -0 -0 -0 -0 -0 -0 -0 -0 -0 -0 -0 -0 -0 -0 -0 -0 -0 -0 -0 -0 -0 -0 -0 -0 -0 -0 -0 -0 -0 -0 -0 -0 -0 -0 -0 -1 -1 -0 -0 -0 -0 -1 -0 -0 -0 -0 -1 -1 -0 -0 -0 -0 -0 -0 -0 -0 -0 -0 -0 -0 -0 -0 -0 -0 -0 -0 -0 -3 -3 -2 -5 nan nan -3 nan -3 -3 -7 -7 -7 -2 -1 -2 -2 -2
-0 -0 -0 -0 -0 -0 -0 -0 -0 -0 -0 -0 -0 -0 -0 -0 -0 -0 -0 -0 -0 -0 -0 -0 -0 -0 -0 -0 -0 -0 -0 -0 -0 -0 -0 -0 -0 -0 -0 -0 -0 -0 -0 -0 -0 -0 -0 -3 -3 -2 -0 -0 -0 -0 -0 -0 -0 -0 -0 -0 -0 -0 -0 -0 -0 -0 -2 -3 -6 -6 -3 -3 nan nan -2 -0 -0 -0 -9 -17 -17 -13 -11 -8 -8 -3
-0 -0 -0 -0 -0 -0 -0 -0 -0 -0 -0 -0 -0 -0 -0 -0 -0 -0 -0 -0 -0 -0 -0 -0 -0 -0 -0 -0 -0 -0 -0 -0 -0 -0 -0 -0 -0 -0 -0 -0 -0 -0 -0 -0 -0 -0 -0 -3 -3 -0 -0 -0 -0 -0 -0 nan nan nan -0 -0 -0 -0 -0 -0 -0 -1 -0 -6 -10 -10 -5 -1 -1 -1 nan -2 -0 -0 -3 -16 -16 nan nan -16 -16 -9
-0 -0 -0 -0 -0 -0 -0 -0 -0 -0 -0 -0 -0 -0 -0 -0 -0 -0 -0 -0 -0 -0 -0 -0 -0 -0 -0 -0 -0 -0 -0 -0 -0 -0 -0 -0 -0 -0 -0 -0 -0 -0 -0 -0 -0 -0 -0 -2 -2 -0 -0 -0 -0 -0 -0 -0 -0 -0 -0 -0 -0 -0 nan -1 -1 -1 -2 -4 -9 -9 -5 -2 -1 -1 nan nan -2 -2 -2 -6 -6 -10 nan nan nan -9
-0 -0 -0 -0 -0 -0 -0 -0 -0 -0 -0 -0 -0 -0 -0 -0 -0 -0 -0 -0 -0 -0 -0 -0 -0 -0 -0 -0 -0 -0 -0 -0 -0 -0 -0 -0 -0 -0 -0 -0 -0 -0 -0 -0 -0 -0 -0 -0 -0 -0 -0 -0 -1 -1 -0 -0 -0 -0 -0 -0 -0 -0 nan -1 -1 -0 -0 -0 -4 -4 -4 -2 -1 -1 -1 -1 -1 -1 -0 -3 -3 -5 nan nan nan -7
Wind_Speed
8 8 9 11 12 12 11 13 14 14 12 11 10 11 11 12 12 12 15 15 15 14 14 14 14 15 17 20 22 24 25 26 26 27 27 27 28 28 28 28 28 29 29 29 30 30 30 30 30 31 31 31 31 31 31 31 31 32 32 32 32 32 32 32 32 32 32 32 32 32 32 32 32 32 32 32 32 32 33 33 33 32 32 32 32 33
9 9 9 12 13 13 11 12 13 13 13 13 12 11 12 13 12 11 11 13 14 13 13 13 14 15 17 19 21 23 25 26 26 26 27 27 27 27 28 28 28 29 29 29 30 30 30 30 31 31 31 31 31 31 31 32 32 32 32 32 32 32 32 32 32 32 32 32 32 32 32 32 32 32 32 32 33 33 32 32 32 32 32 32 32 33
9 9 8 10 11 12 11 12 13 13 14 14 13 13 14 15 13 11 10 11 11 12 12 13 14 15 17 18 20 22 24 25 25 26 26 26 27 27 28 28 28 29 29 29 30 30 30 30 31 31 31 31 31 31 31 31 32 32 32 32 32 32 32 32 32 32 31 31 31 31 31 31 31 31 32 32 32 32 32 32 32 32 32 32 32 33
9 9 9 9 9 11 11 12 12 12 12 13 14 15 16 14 12 10 10 11 11 12 13 14 15 15 15 15 17 20 22 24 25 25 26 26 27 27 28 28 29 29 29 30 30 30 30 30 31 31 31 31 31 31 31 31 32 32 32 32 32 32 32 32 32 31 31 31 31 31 31 31 31 31 31 31 31 31 31 31 31 31 31 31 32 32
9 9 9 9 9 10 11 12 12 12 11 12 13 13 13 11 10 10 10 11 12 13 13 13 14 14 13 12 14 18 22 24 25 26 26 27 27 27 28 28 29 29 29 29 30 30 30 30 30 30 31 31 31 31 31 31 32 32 32 32 32 32 32 31 31 31 31 31 31 31 31 30 31 31 31 30 30 30 29 30 30 30 30 30 30 31
9 9 9 9 9 9 9 10 10 10 11 10 10 11 11 10 10 10 10 11 12 12 11 11 12 13 13 13 15 18 21 23 24 25 26 26 27 27 28 28 28 29 29 29 29 29 30 30 30 30 30 31 31 31 31 31 32 32 32 32 32 32 31 31 31 31 31 31 31 31 30 30 30 31 31 30 30 30 29 30 29 29 29 29 29 30
9 9 9 9 9 8 8 9 9 10 10 9 9 9 9 9 10 11 12 11 11 11 10 10 11 11 12 13 15 18 19 21 23 24 24 25 26 26 27 27 28 28 29 29 29 29 29 30 30 30 30 30 31 31 31 31 31 32 32 32 32 32 31 31 31 31 31 31 31 31 31 30 30 30 30 30 30 30 30 30 30 30 30 30 30 30
10 9 9 9 9 9 8 8 9 9 9 9 8 8 8 9 9 11 12 12 11 10 10 10 10 10 11 12 14 15 16 17 17 18 20 21 22 23 25 26 27 28 28 28 29 29 29 29 30 30 30 30 30 31 31 31 31 31 31 31 31 32 31 32 32 32 32 32 31 31 31 31 30 30 30 30 30 30 31 31 31 31 31 31 31 31
11 11 10 10 10 10 9 8 8 8 8 8 8 9 9 10 10 10 10 10 10 10 10 10 10 10 11 11 12 13 14 15 15 15 16 16 17 19 21 23 25 26 27 27 28 28 29 29 29 29 30 30 30 30 30 30 31 31 31 31 31 31 31 31 31 31 31 31 31 31 31 30 30 30 30 30 30 30 30 30 30 31 31 31 32 32
11 11 11 10 9 9 9 9 8 8 8 8 9 9 10 11 11 10 10 10 9 9 9 10 10 11 11 11 11 12 13 15 17 18 19 18 19 21 21 21 22 23 25 26 27 28 28 28 28 29 29 29 29 29 30 30 30 30 30 30 30 30 30 31 31 31 31 31 30 30 30 30 30 30 29 29 29 30 30 30 30 30 30 30 31 31
10 10 10 10 8 7 7 7 7 8 9 9 9 9 9 10 11 11 12 11 10 9 9 9 10 10 11 10 11 11 12 13 14 16 18 19 20 22 22 21 21 22 24 25 25 26 26 27 27 28 28 28 28 29 29 29 29 29 29 29 29 29 30 30 30 30 30 30 30 30 30 29 29 29 29 29 29 29 29 29 29 30 30 30 30 31
9 9 8 8 7 6 6 6 7 8 9 9 9 9 9 9 9 10 11 11 11 10 10 10 9 10 10 10 11 11 11 11 12 12 12 13 14 15 16 16 17 18 20 20 21 23 24 25 26 26 26 27 27 27 27 27 27 28 28 28 28 29 29 29 29 29 29 29 29 29 29 29 29 29 29 30 30 30 30 30 30 30 30 30 30 31
8 7 6 6 6 6 6 7 8 8 8 9 10 10 10 9 9 9 10 11 11 11 10 10 10 10 10 10 10 10 10 11 11 11 10 10 10 10 11 11 12 12 13 14 15 16 19 22 23 24 24 25 25 26 26 26 26 27 27 28 28 28 28 29 29 29 29 29 29 30 30 30 30 30 30 30 30 30 30 30 30 30 30 30 30 30
7 6 6 6 7 7 8 9 10 10 9 9 9 10 10 9 9 9 10 10 10 10 10 11 11 10 9 9 9 9 10 10 11 10 10 10 9 9 10 10 11 11 11 12 12 13 16 17 18 18 21 22 23 24 24 24 25 26 27 27 27 28 28 29 29 29 29 30 30 30 30 30 30 30 30 30 30 30 30 30 30 30 30 30 30 30
7 7 7 8 9 9 9 10 10 10 10 9 9 9 9 9 9 9 9 10 10 10 10 11 11 10 8 7 8 9 9 10 10 10 11 10 9 9 10 11 11 12 11 12 12 13 15 14 14 14 16 19 20 21 22 23 25 26 27 27 28 28 29 29 30 30 30 30 30 31 31 31 31 31 31 31 31 31 31 30 30 30 30 30 30 30
7 8 9 10 10 10 9 10 10 10 10 10 9 9 9 9 9 9 9 10 10 10 9 10 10 10 8 7 7 8 9 10 10 10 11 10 10 10 10 11 12 12 11 11 12 12 12 12 13 13 14 18 21 23 25 25 26 27 28 28 29 29 30 30 30 30 31 31 31 31 31 31 31 31 31 31 31 31 31 31 30 30 30 30 30 30
8 9 9 10 10 10 10 10 10 10 10 9 9 9 9 9 9 9 9 9 9 8 8 9 9 9 7 7 7 8 9 9 10 10 11 11 10 10 10 11 12 12 12 12 11 11 11 12 12 12 13 17 21 24 26 26 27 28 29 29 29 30 30 30 30 30 31 31 31 31 31 31 31 31 31 31 31 31 31 30 30 30 30 31 31 31
9 9 10 10 10 10 10 10 9 9 9 9 9 9 8 9 9 9 9 8 8 8 8 8 8 7 8 8 7 7 9 9 10 10 11 11 11 10 10 11 12 12 12 12 11 11 11 12 12 13 14 20 23 25 27 28 28 28 29 29 30 30 30 30 30 30 31 31 31 31 31 31 31 31 31 31 31 31 31 31 31 31 31 31 31 31
9 9 10 10 10 10 9 9 9 9 9 8 8 9 9 10 9 9 9 8 8 8 8 8 8 8 9 9 9 9 10 10 10 10 11 11 11 10 10 10 11 12 12 12 11 11 11 12 13 16 20 23 25 26 27 28 28 28 29 29 30 30 30 30 30 31 31 31 31 31 31 31 31 31 31 31 31 31 31 31 31 31 31 31 31 31
10 10 10 10 10 10 9 9 9 9 9 9 9 10 10 10 9 9 8 8 8 8 8 9 10 10 9 10 11 11 10 10 10 10 11 11 11 11 10 10 11 12 12 11 11 11 11 11 13 16 20 22 24 26 27 27 28 29 29 30 30 30 30 31 31 31 31 31 31 31 31 31 31 31 31 31 31 31 31 31 31 31 31 31 31 31
10 10 10 9 9 9 8 8 9 10 11 11 11 11 11 9 9 8 8 8 8 9 9 9 10 10 9 10 11 11 11 10 10 10 9 9 10 9 9 9 11 11 12 11 11 10 11 11 11 12 16 20 24 26 27 28 29 29 30 30 30 30 30 30 30 31 31 31 31 31 31 31 31 31 31 31 31 31 31 31 31 31 31 32 32 32
10 10 11 11 11 10 9 10 11 12 13 13 12 10 9 8 8 8 9 9 10 10 10 10 10 10 10 11 12 12 11 10 10 9 8 9 10 10 8 9 10 11 12 11 11 11 11 11 11 13 16 21 25 27 28 28 29 29 29 30 30 30 30 30 30 30 30 30 30 30 30 30 30 30 31 31 31 31 31 31 31 31 32 32 32 32
10 11 11 11 11 10 10 11 11 12 12 11 10 9 7 8 8 9 10 10 10 10 10 10 10 10 11 11 11 11 10 10 9 8 7 9 10 10 8 8 9 10 11 10 10 11 11 11 12 13 17 22 25 27 28 28 28 29 29 29 29 29 29 29 29 29 29 29 30 30 30 30 30 30 31 31 31 31 31 31 31 32 32 32 32 33
11 12 11 11 10 10 10 10 10 10 9 8 8 9 9 9 10 10 10 10 10 10 10 10 10 11 11 11 11 10 9 9 8 8 7 8 9 10 8 9 10 11 11 10 10 11 12 12 12 13 14 20 23 26 27 27 28 28 28 28 28 28 28 28 28 29 29 29 30 30 30 30 30 31 31 31 31 31 31 31 32 32 32 32 32 33
11 11 11 11 12 13 13 12 12 11 11 10 10 10 10 11 12 12 11 11 10 10 9 10 10 10 9 10 10 9 8 8 8 7 6 7 9 10 9 9 9 11 11 10 10 11 12 12 13 13 13 16 20 24 25 26 26 26 26 26 26 27 27 27 28 28 29 29 30 30 30 30 30 31 31 31 31 31 31 31 31 32 32 32 32 33
15 16 16 18 20 22 23 22 21 20 20 17 13 11 11 11 11 11 10 10 9 9 9 10 10 10 9 8 8 8 8 8 7 7 7 7 8 9 9 8 9 10 11 11 10 11 12 13 13 13 13 14 17 20 23 24 24 25 25 25 26 26 27 27 28 29 29 29 30 30 30 30 30 30 31 31 31 31 31 31 31 32 32 32 32 32
22 23 24 25 24 24 24 24 24 25 25 22 19 16 13 11 10 10 10 9 8 8 9 9 10 10 9 9 8 8 8 7 7 7 7 8 8 9 8 8 9 10 11 11 10 11 12 13 13 13 13 12 13 16 19 21 23 24 24 25 26 26 27 27 28 28 29 29 29 29 29 30 30 30 30 30 30 31 31 31 31 31 31 30 28 27
22 22 21 21 21 21 22 22 22 23 23 22 22 20 15 11 10 10 9 8 8 8 9 9 9 9 9 9 9 9 9 8 7 7 7 7 7 7 8 8 9 10 11 10 10 11 12 12 12 12 12 11 11 13 16 19 21 23 24 24 25 26 26 27 27 28 28 28 28 28 29 29 29 29 30 30 30 30 31 31 31 31 29 26 21 18
18 18 18 18 19 19 20 20 20 20 20 20 20 18 14 10 9 9 9 8 8 9 9 9 9 9 9 9 9 9 9 8 8 7 7 6 6 7 8 8 8 9 9 10 10 10 10 10 10 10 11 12 11 11 13 16 17 19 20 22 23 24 25 25 26 26 27 27 27 27 28 28 28 29 29 29 30 30 30 31 31 28 23 19 16 15
13 14 14 15 16 16 16 15 15 16 17 18 18 16 13 9 8 8 9 8 8 9 9 9 9 9 9 9 9 9 8 8 7 7 7 6 6 7 8 8 9 8 8 8 8 8 8 8 8 9 10 11 12 11 11 12 13 13 14 17 19 20 22 23 24 25 25 26 26 27 27 27 28 28 28 28 29 29 30 31 29 24 16 14 13 13
12 12 12 12 12 12 12 11 11 12 13 14 14 13 11 9 8 8 8 8 8 8 9 9 9 9 9 8 7 7 6 7 7 7 7 6 6 7 8 8 9 8 7 7 7 8 9 8 7 8 9 11 11 11 11 11 12 12 11 13 13 15 18 20 22 22 23 24 25 25 26 26 27 27 27 28 28 29 29 30 28 23 15 13 13 13
11 10 10 10 10 9 9 9 9 9 9 10 10 9 9 9 8 8 8 8 8 8 8 9 9 9 9 8 8 7 6 7 8 9 8 6 6 6 8 8 9 8 7 7 7 8 8 8 8 8 9 10 10 11 11 11 11 11 11 11 12 13 16 17 18 19 19 20 22 23 24 25 26 26 27 27 28 28 29 30 28 23 15 13 13 13
10 10 9 9 9 9 8 8 8 8 8 8 8 8 8 8 9 8 8 8 7 7 8 9 9 9 9 9 9 9 8 9 10 10 10 7 6 6 7 8 9 9 8 8 8 8 8 8 9 10 10 10 10 10 11 11 11 11 11 11 11 12 14 14 14 15 15 16 18 19 21 22 23 24 25 26 27 27 28 29 28 25 19 14 13 13
10 10 10 9 9 8 8 8 8 8 8 8 8 8 8 8 8 8 8 8 7 7 8 8 9 9 9 9 9 10 10 10 11 11 10 8 6 6 8 9 9 9 9 8 8 8 8 9 10 10 10 10 10 10 10 11 11 11 10 11 11 11 12 12 12 12 13 13 13 14 15 16 18 20 21 23 24 25 26 27 28 27 25 19 15 13
9 10 9 9 9 8 9 9 8 8 8 8 8 8 8 8 8 8 8 8 8 8 8 8 8 9 9 9 9 10 11 11 12 12 11 9 7 7 8 8 9 9 9 9 8 8 8 10 11 11 10 10 10 10 9 10 10 10 10 10 11 11 11 11 11 12 12 12 12 12 12 12 13 14 16 18 20 22 24 26 27 28 28 26 22 18
9 9 9 8 8 8 9 9 9 8 8 8 8 8 8 8 8 8 8 8 8 9 9 9 9 9 9 10 10 11 12 11 12 13 12 10 8 7 7 8 8 9 9 9 9 8 9 10 11 12 12 12 11 10 9 10 10 10 10 11 11 11 11 11 11 12 12 12 12 12 11 11 12 12 14 18 21 23 25 26 27 28 29 29 28 25
9 9 9 8 8 8 9 8 8 8 8 8 8 8 8 9 9 9 9 9 9 10 10 11 11 11 12 11 11 11 12 12 12 13 14 11 10 9 8 8 9 9 9 9 9 9 9 10 11 11 11 11 10 9 9 10 10 10 11 11 11 11 12 12 12 11 11 12 12 12 12 12 12 13 14 18 20 22 23 25 26 27 28 29 29 29
8 8 8 8 8 8 8 8 8 8 8 8 8 9 9 10 10 11 10 10 11 11 11 11 11 12 15 15 14 14 14 15 16 16 16 13 11 10 9 9 10 10 10 10 9 10 10 10 11 11 10 10 11 11 12 11 11 11 11 11 11 11 12 12 11 11 11 12 13 13 13 13 13 13 13 14 14 14 15 16 18 20 23 24 26 28
8 8 8 8 8 8 8 8 8 8 8 9 9 9 10 11 11 11 11 11 11 11 12 11 11 12 13 14 15 16 16 16 16 16 15 14 12 10 10 10 10 10 10 10 9 9 10 10 10 11 10 11 11 12 12 11 11 12 12 11 11 11 11 11 11 11 11 12 13 13 13 12 12 12 12 12 12 12 12 12 13 14 16 15 17 20
8 8 8 8 8 8 8 8 9 9 9 9 10 10 10 10 10 10 10 10 10 11 12 12 12 11 12 13 13 14 14 13 13 13 13 12 11 10 10 10 10 10 10 10 9 9 10 10 11 11 12 11 11 11 11 11 12 12 13 11 10 10 11 11 11 11 11 11 12 12 12 11 12 12 13 12 12 12 12 12 12 13 13 12 11 12
9 8 8 8 8 8 8 9 9 9 9 9 9 9 9 9 9 9 9 9 9 9 10 10 11 11 11 12 12 13 13 13 13 13 12 12 12 11 10 10 10 10 10 10 10 10 10 11 11 12 12 12 12 13 13 13 14 15 14 12 11 11 12 13 12 12 11 11 11 11 12 13 14 14 13 13 12 12 12 12 13 13 13 11 11 10
9 9 8 8 8 8 8 9 9 10 10 9 9 9 9 8 8 9 9 9 9 9 9 9 9 10 11 11 11 11 11 11 12 12 12 12 12 12 11 11 10 10 10 10 10 11 11 11 11 11 11 11 11 12 12 13 14 14 13 13 13 13 13 12 11 10 10 11 11 12 13 13 13 13 13 13 12 12 12 13 14 15 14 12 11 11
8 8 8 8 8 9 9 10 10 9 9 8 8 8 8 8 8 9 9 9 10 10 10 9 9 10 11 11 11 11 10 10 10 11 11 11 12 12 12 12 11 10 10 10 10 11 11 11 11 11 11 11 11 12 13 13 13 13 13 13 13 11 9 9 9 10 10 11 12 12 12 12 12 12 12 12 12 12 12 13 15 16 15 13 11 11
8 8 8 8 8 8 9 9 8 8 8 9 9 9 8 8 9 9 9 9 9 10 9 9 9 10 10 11 12 11 11 10 11 11 11 11 12 12 12 13 12 12 11 10 10 10 10 11 11 11 11 11 11 12 12 13 13 13 12 13 13 12 10 10 11 12 12 12 12 11 12 12 13 13 12 12 12 11 11 11 11 11 12 11 11 11
8 8 8 8 8 8 8 9 9 8 9 9 9 9 9 9 9 9 9 9 9 10 9 9 8 8 9 10 11 11 10 10 10 9 9 11 12 13 12 11 11 11 11 10 10 9 9 10 11 11 10 10 11 12 12 13 13 13 13 13 13 12 12 12 12 12 12 12 12 12 13 13 13 13 13 13 12 11 11 10 11 11 11 11 11 11
8 8 8 8 8 9 9 9 9 9 9 9 9 9 9 9 9 9 9 9 9 9 9 9 8 8 9 10 10 10 10 10 10 9 9 9 10 10 10 10 10 9 9 9 10 10 10 10 11 11 11 11 11 12 12 13 13 12 12 12 12 12 12 12 12 12 12 12 13 13 14 14 13 13 13 13 13 12 11 10 10 10 11 11 11 11
9 9 9 9 9 9 9 9 9 9 9 9 9 9 9 9 9 9 9 9 9 9 9 9 9 9 10 10 10 10 10 11 11 10 10 10 10 10 9 9 9 10 9 9 10 11 11 11 11 11 11 11 11 12 12 12 12 12 12 12 11 11 11 11 11 11 12 12 12 13 15 14 14 13 14 14 13 12 11 10 9 9 10 10 10 10
9 9 9 9 9 9 9 9 9 9 10 10 10 10 9 9 10 10 9 9 9 9 9 9 9 10 10 11 10 10 11 11 11 11 10 10 10 10 9 9 9 9 9 10 11 12 12 12 13 13 12 12 12 12 12 12 11 11 11 11 11 11 12 12 11 11 12 12 13 14 14 13 13 13 14 14 13 12 11 11 10 9 9 9 9 9
9 9 9 9 9 9 9 9 9 9 10 10 10 10 10 10 11 11 9 9 9 8 8 9 10 10 10 11 11 11 11 11 11 10 10 10 9 9 9 9 9 9 9 9 10 11 11 12 12 13 13 12 12 12 12 12 11 11 11 11 11 11 11 11 12 12 12 12 13 14 13 12 12 12 13 13 14 14 14 13 12 11 9 9 9 9
9 9 9 9 9 9 9 9 9 10 10 11 11 11 11 10 10 10 9 9 8 8 8 9 10 10 11 11 11 11 11 11 11 10 10 9 9 9 9 9 9 9 9 9 9 9 9 9 10 11 12 12 12 12 12 12 11 11 10 10 10 10 11 11 11 12 12 12 13 13 13 12 12 12 11 12 13 14 14 13 13 12 11 10 10 10
9 9 9 9 9 9 9 9 9 10 10 11 11 11 11 10 10 9 9 9 9 9 9 9 10 10 11 11 11 11 11 11 11 11 10 9 9 9 9 9 9 9 9 9 9 8 8 8 8 8 9 10 11 11 9 10 11 11 10 10 10 9 10 11 11 12 12 12 12 12 12 12 12 11 11 11 12 13 13 13 14 14 13 12 11 12
Wind_Direction
297 300 302 303 302 299 297 298 297 296 295 294 293 294 294 294 294 294 295 295 295 295 294 293 292 291 291 290 290 289 289 290 290 291 292 292 292 291 291 290 290 290 290 289 289 289 289 288 288 287 287 287 287 287 288 288 287 287 287 287 286 286 285 285 284 284 283 283 282 281 281 280 279 278 277 275 274 273 272 272 272 272 272 272 271 270
298 300 300 302 301 298 296 296 296 295 295 295 296 296 296 297 297 297 296 296 295 295 295 293 292 291 290 290 289 289 290 290 291 292 292 292 292 291 290 290 289 289 290 289 289 290 290 290 289 289 289 289 289 288 288 288 287 287 286 286 285 285 284 283 283 282 282 281 281 281 281 280 280 279 278 277 275 274 273 273 273 272 272 271 270 270
302 300 299 300 299 297 296 297 296 295 294 295 296 297 297 297 297 297 297 297 296 295 294 293 292 290 289 287 288 289 290 292 292 292 292 292 291 291 291 290 290 291 291 291 291 291 290 290 289 289 288 288 287 287 286 286 285 285 284 284 283 283 282 282 281 281 280 280 280 280 279 279 278 277 276 274 274 273 272 272 271 270 270 269 268 267
300 299 300 299 296 295 295 297 297 296 294 294 295 296 296 297 297 297 298 298 296 294 292 290 288 287 287 287 289 291 292 293 293 293 292 292 292 292 292 292 291 291 291 291 290 290 289 288 288 287 286 286 285 284 284 284 284 283 283 283 282 282 281 281 280 280 280 280 280 279 279 278 277 276 275 274 273 272 272 271 271 271 270 269 268 267
296 296 299 298 295 293 294 294 295 294 293 293 294 295 296 296 297 298 297 295 293 291 289 286 286 286 288 290 292 293 294 294 294 294 293 293 293 293 292 292 291 290 290 289 289 288 287 287 286 286 285 285 284 284 284 284 283 283 283 283 282 282 281 281 281 281 281 281 281 280 280 279 279 278 277 276 275 274 273 272 271 271 270 270 269 268
292 293 296 295 294 293 293 292 292 292 292 292 293 295 297 297 297 295 293 290 288 287 286 286 288 290 292 293 294 295 295 295 295 295 294 294 293 293 292 291 290 289 289 289 288 288 287 287 287 286 286 285 285 285 285 284 284 284 284 283 283 282 282 282 282 282 282 282 282 282 281 281 281 281 281 280 279 278 276 274 273 271 270 269 268 268
290 288 290 289 289 288 288 288 291 292 293 294 295 296 295 294 292 290 288 287 287 287 288 290 292 293 295 296 297 297 297 297 296 295 294 293 293 292 291 290 290 289 289 289 289 288 288 288 288 287 287 286 286 285 285 285 285 284 284 284 284 284 284 284 284 284 284 284 283 283 282 282 282 281 281 281 281 280 279 278 276 274 272 271 270 269
289 287 285 285 286 286 285 285 289 292 295 297 298 297 293 289 287 286 287 288 289 292 294 295 296 297 298 299 300 300 299 297 296 295 294 293 292 291 291 290 290 290 290 290 289 289 289 288 288 288 287 287 286 286 285 285 285 285 285 285 286 286 286 286 286 285 285 285 284 283 283 282 281 281 281 280 280 280 279 279 278 276 276 274 273 272
287 288 286 284 285 286 288 288 289 291 294 295 295 295 293 291 290 289 290 292 295 298 300 301 301 301 300 301 300 299 297 295 294 293 293 292 292 291 291 291 290 290 290 290 290 290 289 289 289 289 288 288 288 287 287 287 287 287 287 287 287 286 286 286 286 285 285 284 284 283 283 282 281 281 280 279 278 278 277 277 276 276 275 275 274 273
282 283 284 282 282 284 288 292 294 293 290 287 286 287 290 294 296 297 297 299 301 303 303 303 302 302 301 300 298 296 295 293 291 290 290 290 290 290 290 290 290 290 290 290 290 290 290 290 290 290 290 289 289 289 288 288 288 287 287 286 286 286 285 285 285 285 284 284 284 283 283 282 281 280 280 279 278 277 276 275 274 274 273 273 272 272
280 279 280 281 282 282 283 287 291 292 289 285 284 284 287 294 299 303 304 304 305 305 303 301 300 300 300 299 297 295 294 292 291 290 289 290 290 290 290 290 290 290 291 291 291 291 291 291 291 291 290 290 289 289 288 287 287 286 286 286 285 285 285 284 284 284 284 284 283 283 282 282 281 280 279 278 277 275 274 273 272 272 271 270 270 269
279 280 280 283 286 288 285 284 285 288 291 292 293 294 295 298 301 303 304 305 305 305 303 300 298 296 296 297 296 295 293 291 291 291 291 291 291 291 291 292 292 292 293 293 293 292 292 292 291 291 290 289 288 288 287 287 286 286 285 285 285 284 284 284 284 284 283 283 283 282 281 280 279 278 277 276 275 273 272 271 270 269 269 268 268 267
278 279 282 286 289 291 292 293 294 295 298 299 299 300 300 302 303 303 302 302 302 302 302 299 296 293 292 292 293 293 292 291 290 291 292 293 294 295 296 295 295 295 295 294 293 292 292 292 291 290 289 288 287 287 286 286 285 285 285 285 284 284 284 283 283 283 282 282 281 280 279 279 278 276 275 274 273 272 271 270 269 268 267 267 266 266
283 287 290 290 293 296 299 300 301 301 300 299 298 298 300 303 304 303 300 298 298 299 298 295 294 292 292 291 290 290 291 291 292 292 293 294 296 298 299 297 296 295 295 294 292 291 292 292 291 289 288 287 286 286 285 285 285 285 285 285 285 284 284 284 283 283 282 281 281 280 279 279 278 277 276 275 274 273 272 271 270 269 268 268 267 266
295 301 301 300 300 300 301 300 299 297 296 296 296 297 300 301 302 301 299 297 297 297 296 293 292 291 290 290 292 293 293 293 294 294 294 294 296 298 299 297 295 293 293 292 291 290 291 290 288 287 286 286 285 286 286 287 286 286 286 286 286 285 285 285 284 284 283 283 282 281 281 280 279 279 278 277 276 275 274 273 272 271 270 269 268 267
304 304 301 300 299 298 297 296 294 293 294 296 297 299 300 301 301 300 297 296 295 296 295 295 294 293 290 290 294 296 297 296 295 295 296 295 297 298 299 296 293 291 290 289 289 289 290 288 286 285 286 286 287 287 288 288 287 287 287 287 287 287 287 286 286 285 284 284 283 282 282 281 280 279 279 278 277 276 275 274 272 271 270 269 268 267
303 301 298 296 295 294 293 291 291 292 296 298 299 299 300 299 298 297 294 293 294 294 293 296 297 299 299 298 298 298 300 298 297 296 296 295 296 297 297 293 291 290 289 288 288 289 290 288 288 287 287 287 288 288 289 289 288 288 289 288 288 287 287 286 286 285 284 284 283 282 282 281 280 279 279 278 277 276 274 273 272 271 270 269 267 266
297 295 294 292 291 291 293 293 294 296 298 298 299 299 298 295 293 292 290 291 291 291 293 295 296 299 302 302 302 303 305 301 299 297 296 293 293 294 294 291 288 288 288 288 289 289 289 288 287 287 287 288 288 289 289 289 289 289 289 288 288 287 286 286 286 285 285 284 283 283 282 281 281 280 279 278 277 276 275 274 272 271 270 268 267 266
291 290 289 290 291 293 295 296 297 298 298 299 300 299 296 292 290 289 288 288 288 290 294 296 297 296 296 295 298 302 306 303 301 298 295 293 292 293 294 290 287 286 287 288 289 290 289 288 287 287 287 288 288 288 289 289 289 289 289 288 288 288 288 287 287 287 286 285 285 284 283 282 281 281 280 279 278 277 275 274 273 272 271 269 268 266
288 289 289 292 294 294 293 292 293 294 296 298 298 296 292 291 289 288 287 288 290 293 296 296 295 294 293 292 295 299 305 304 300 295 291 290 290 292 294 291 288 287 287 288 290 291 290 288 287 287 287 287 288 289 289 289 290 290 290 290 290 289 289 288 288 287 286 286 285 284 283 282 282 281 280 279 278 277 276 275 274 273 272 270 269 268
288 289 289 291 291 290 289 289 291 293 296 297 295 292 289 288 288 288 291 295 298 298 297 293 291 291 293 293 295 298 302 301 296 291 289 288 288 290 293 292 290 289 288 289 290 290 289 288 287 287 287 289 289 290 290 291 291 291 291 290 290 289 288 288 287 286 286 285 284 284 283 282 282 281 280 279 278 277 276 275 274 273 272 271 270 269
287 287 287 286 285 284 285 287 290 292 294 294 290 287 286 290 294 298 302 303 301 298 294 290 289 290 291 290 290 292 295 292 289 288 290 289 289 290 293 292 291 289 288 290 291 291 290 290 289 289 290 290 291 291 291 291 291 290 290 289 289 289 289 288 287 287 286 286 285 284 283 283 282 281 280 279 277 276 275 274 273 272 271 270 269 268
284 284 285 284 284 284 286 289 290 291 290 287 284 285 292 299 302 304 304 301 297 293 291 288 287 286 284 283 284 286 287 286 285 286 287 287 289 291 295 294 292 289 288 291 294 295 295 294 292 292 291 291 291 291 290 290 290 289 290 290 290 290 290 290 289 288 288 287 286 285 284 283 282 281 280 278 277 276 275 274 273 272 271 270 269 268
282 282 283 284 285 286 287 287 286 285 284 285 288 292 298 299 299 298 296 293 290 288 287 286 285 283 281 281 283 285 287 289 289 289 286 286 288 291 296 296 293 290 290 294 298 300 299 295 293 292 291 290 290 290 290 290 290 290 290 291 291 291 291 291 290 290 289 288 287 287 285 284 283 282 281 280 279 277 276 275 274 273 272 270 269 268
282 282 284 284 285 284 284 283 285 288 293 296 299 300 300 299 297 294 290 288 285 285 285 285 285 285 285 287 288 289 291 293 292 290 287 286 287 290 294 295 294 293 294 297 299 300 297 294 292 291 290 290 290 290 290 290 290 291 291 291 291 291 291 291 290 290 289 289 288 288 287 286 285 284 283 282 281 279 278 277 276 275 273 272 271 270
282 282 283 284 285 286 288 290 293 296 299 300 300 301 300 299 296 293 289 286 285 286 287 286 286 288 291 293 292 292 293 293 292 289 286 286 288 290 293 296 296 295 296 298 298 298 296 294 293 293 292 291 291 291 291 291 291 292 292 291 291 291 291 290 289 289 288 287 287 286 286 285 284 283 283 282 281 280 279 278 277 276 275 274 273 271
284 284 284 286 288 290 293 296 297 299 300 299 299 299 298 298 295 292 288 288 289 290 290 289 290 291 293 292 291 292 295 296 293 289 286 286 287 290 295 298 299 297 297 297 297 297 295 294 293 293 291 290 290 290 292 292 293 293 293 292 291 290 289 288 287 286 285 285 284 283 283 282 281 281 280 280 279 279 278 277 276 275 275 274 273 271
286 286 287 289 292 295 297 298 299 299 299 299 298 298 298 296 292 289 288 291 293 292 289 289 291 292 293 293 293 294 296 294 292 290 290 288 287 289 295 300 300 299 299 297 296 295 292 290 290 290 290 290 291 293 294 295 295 295 294 292 290 288 287 285 284 283 283 282 281 281 280 280 279 278 278 278 277 277 276 276 275 275 274 273 271 268
289 290 292 296 298 300 301 301 300 299 298 297 297 296 295 291 287 286 288 292 292 290 287 287 288 290 292 293 294 294 292 290 291 295 301 296 290 290 297 300 301 301 301 300 298 294 288 286 287 289 291 294 296 297 298 298 297 295 293 290 288 287 285 284 283 283 282 282 281 281 280 280 279 279 278 278 277 277 276 276 275 275 273 271 268 266
299 301 302 303 304 303 302 300 298 297 296 295 294 294 291 286 282 282 284 287 286 285 285 286 288 289 292 294 294 292 289 290 297 306 311 301 293 292 298 299 300 301 304 304 302 298 292 288 288 291 296 298 299 299 298 297 296 293 292 290 288 287 285 284 284 284 283 284 283 283 283 282 282 281 281 280 279 278 277 277 276 276 273 269 266 264
309 309 307 306 304 302 299 297 295 294 294 294 293 292 289 285 281 280 281 282 281 281 283 285 287 289 291 293 293 291 289 293 302 309 311 299 292 293 299 298 298 299 302 302 303 303 302 299 297 297 299 299 298 297 295 295 294 293 292 291 289 287 286 286 286 286 286 286 286 285 285 285 284 283 282 281 281 280 279 278 277 276 273 270 267 265
310 307 304 302 301 299 297 295 295 294 294 294 293 292 289 285 282 280 279 278 278 278 280 282 285 286 286 285 284 284 286 292 299 303 304 296 291 291 296 296 296 297 297 294 293 294 299 302 304 304 302 299 297 295 294 293 293 292 291 290 289 287 287 288 288 288 288 288 287 287 286 285 284 283 282 281 281 280 279 278 277 276 272 269 267 265
305 303 300 299 298 297 296 295 295 294 294 294 293 292 290 287 284 282 280 278 277 277 278 280 282 284 283 281 279 278 281 286 292 297 300 296 292 292 295 295 295 295 295 290 286 284 285 292 298 301 301 298 296 295 295 294 292 291 290 289 289 290 291 292 291 290 290 289 288 287 286 285 284 282 281 280 279 279 278 277 276 274 271 268 266 264
302 300 299 299 298 297 296 296 296 296 295 294 294 293 291 289 286 284 282 280 278 276 275 277 279 281 282 281 279 278 280 282 289 295 300 297 293 291 293 293 294 295 295 292 288 285 282 286 291 296 298 298 296 295 295 294 293 291 290 291 291 292 293 294 292 291 289 289 287 286 285 284 282 281 280 278 278 277 276 276 275 273 271 268 266 264
300 299 299 299 299 298 297 297 297 297 296 295 294 293 292 291 289 287 285 283 281 278 275 274 274 274 276 277 278 279 281 284 290 296 298 293 290 288 290 291 292 293 293 291 291 290 287 288 290 293 295 297 296 294 293 293 294 294 294 293 292 291 291 292 291 290 289 288 286 285 284 283 282 280 278 277 276 275 275 275 274 273 271 269 267 265
299 299 299 299 300 299 300 300 300 299 298 297 296 295 294 292 291 289 288 285 283 281 278 274 271 269 268 269 271 275 278 283 288 291 291 288 286 285 286 287 289 290 290 289 289 289 288 289 291 292 293 294 294 294 294 295 297 297 296 294 292 290 289 289 288 288 288 287 286 285 284 283 282 280 279 278 277 277 276 276 275 274 272 270 268 266
298 298 298 300 300 301 301 301 301 301 300 299 298 297 296 295 293 292 289 286 284 281 279 276 273 269 265 265 265 268 273 279 283 284 284 282 281 280 280 282 284 285 284 284 286 287 288 290 290 291 290 289 290 294 298 301 300 298 295 294 293 292 290 289 288 287 286 284 283 283 283 284 283 283 282 280 280 279 278 277 275 274 272 271 269 266
298 298 299 301 302 302 302 302 302 302 301 301 300 298 297 295 293 292 290 287 284 281 279 277 275 273 271 269 268 268 271 274 276 278 278 277 276 275 275 278 279 279 277 278 280 283 285 287 289 291 291 289 288 291 295 298 299 297 296 295 294 293 291 290 288 287 284 284 284 284 285 285 284 284 283 282 281 280 278 276 274 273 271 270 268 266
298 299 301 302 303 303 302 302 301 301 301 299 298 296 294 292 291 290 289 287 285 283 281 281 280 279 277 275 273 272 272 272 272 273 273 272 270 270 271 274 276 276 275 274 274 276 278 280 283 286 289 290 291 291 292 293 294 295 296 296 294 291 288 289 289 288 287 287 287 286 285 284 283 283 283 283 282 281 280 278 276 274 273 272 269 267
300 300 300 302 302 301 300 299 299 299 298 297 295 294 292 291 291 291 290 289 287 286 285 285 284 283 282 280 279 277 276 273 272 270 269 266 264 263 266 269 272 274 275 273 272 271 272 274 277 279 282 285 288 290 291 291 291 293 296 297 295 292 291 291 291 290 288 285 284 283 284 285 285 285 284 283 282 281 280 280 279 278 275 273 271 269
301 301 301 302 301 300 298 297 297 297 297 296 295 294 293 293 293 294 294 293 292 291 291 290 289 288 286 284 283 281 279 275 272 269 266 263 260 260 262 264 268 270 273 273 271 270 270 272 274 277 278 280 282 284 285 286 289 291 293 292 290 290 292 291 289 287 285 284 284 285 288 289 288 287 285 282 280 277 276 277 277 277 275 270 267 265
300 301 302 303 302 301 300 298 297 296 295 294 293 292 292 293 294 295 296 297 297 297 297 297 296 295 294 291 288 285 281 277 273 270 267 264 261 260 260 262 264 267 269 271 271 270 269 271 273 275 277 280 282 283 284 285 287 289 289 287 288 290 291 288 286 286 288 289 291 291 291 289 288 286 284 283 281 278 275 273 273 272 272 268 265 262
301 301 301 301 301 300 299 299 298 296 295 294 292 291 291 291 292 293 294 295 297 298 299 299 298 297 296 296 295 293 290 285 282 279 275 269 265 263 261 261 262 264 266 268 270 272 272 273 273 275 277 279 280 281 283 286 287 287 286 286 289 292 293 292 293 295 294 293 292 291 289 288 287 287 286 285 283 280 277 274 272 270 268 267 265 263
301 300 300 300 300 299 299 298 298 297 296 294 293 292 292 292 292 292 292 292 293 295 297 297 296 295 293 294 295 297 298 296 292 288 282 277 271 267 264 263 262 262 262 265 269 274 278 277 276 276 278 279 279 280 281 283 285 285 285 285 285 284 283 289 295 298 297 294 292 290 289 290 290 290 290 287 285 283 280 277 274 271 268 266 265 264
300 300 300 300 300 300 299 299 298 298 297 295 295 294 294 295 294 293 292 292 293 294 295 296 296 295 293 294 296 298 300 300 298 295 290 285 281 277 273 269 267 265 263 263 265 270 275 278 280 281 282 279 278 276 277 280 281 282 282 282 281 280 279 284 290 294 295 295 294 293 293 294 295 295 293 291 289 287 285 283 281 278 275 273 271 268
301 301 302 301 301 300 299 299 299 299 298 297 296 297 297 298 296 294 292 292 293 293 294 295 294 292 292 294 296 298 299 300 300 300 299 296 292 288 283 278 274 271 268 266 266 266 267 272 276 280 283 280 277 274 273 276 278 280 282 283 284 284 285 288 289 291 292 293 294 295 296 298 298 296 294 294 294 294 290 286 282 280 280 279 277 274
302 302 302 302 301 301 300 301 301 301 300 300 299 299 299 298 297 295 294 294 293 293 294 294 292 289 289 291 293 295 297 299 300 301 302 301 299 296 292 286 281 276 273 271 270 269 267 267 268 271 274 277 277 276 275 275 276 278 282 285 288 289 290 290 291 291 292 292 293 296 299 301 300 298 296 296 296 296 294 291 286 282 280 279 279 277
302 302 302 302 301 300 301 301 302 301 301 300 299 299 299 299 299 298 296 295 294 293 293 293 292 290 289 290 291 292 294 296 297 299 300 301 301 300 298 294 289 284 279 277 275 274 272 269 266 265 265 268 271 274 276 276 276 277 281 285 288 290 290 290 292 294 294 293 293 295 299 300 300 299 299 299 299 300 300 299 296 291 284 281 280 280
302 301 301 300 300 300 300 301 302 301 300 300 300 299 300 300 300 299 296 295 294 292 291 291 291 291 291 292 292 293 294 295 295 296 298 299 300 301 301 299 297 294 290 286 284 282 280 275 269 264 259 259 262 267 272 275 276 278 280 283 286 288 290 292 294 296 296 295 295 296 296 295 295 295 296 299 300 303 305 306 305 302 297 293 289 288
300 299 299 299 299 299 300 301 301 300 299 299 299 300 300 301 300 299 296 294 292 290 289 290 290 291 291 292 293 295 296 296 296 296 297 299 300 302 302 302 301 301 299 297 295 293 291 286 278 269 260 256 256 260 268 274 277 280 281 283 285 289 291 293 295 297 298 299 298 298 296 294 294 294 294 297 300 303 306 307 308 308 308 305 300 296
300 299 299 299 298 298 299 299 298 298 297 297 297 298 298 299 299 298 297 295 294 292 291 290 289 289 290 291 293 294 295 295 295 296 297 298 300 301 301 301 303 304 304 304 304 304 303 302 298 290 277 267 262 262 269 279 285 288 288 288 290 291 293 294 296 298 299 299 299 298 297 296 296 297 298 300 302 304 306 309 310 311 311 309 307 303